Window Rock, AZ

6:02 AM MST on November 19, 2019 (GMT -0700)
Window Rock

Weather History for KRQE - October, 2019

Change the Weather History Date:

Tuesday, October 22, 2019

  Actual Average Record
Temperature  
Mean Temperature 45 °F -  
Max Temperature 66 °F 64 °F 79 °F (1988)
Min Temperature 24 °F 32 °F 16 °F (2007)
Degree Days  
Heating Degree Days 20    
Moisture  
Dew Point 16 °F    
Average Humidity 34    
Maximum Humidity 49    
Minimum Humidity 19    
Precipitation  
Precipitation 0.00 in - - ()
Sea Level Pressure  
Sea Level Pressure 30.18 in    
Wind  
Wind Speed 3 mph (North)    
Max Wind Speed 14 mph    
Max Gust Speed -    
Visibility 10 miles    
Events      
Averages and records for this station are not official NWS values.
T = Trace of Precipitation, MM = Missing Value Source: NWS Daily Summary

Daily Weather History Graph

Daily Weather History Graph

Search for Another Location

Airport or City:

Astronomy

Oct. 22, 2019 Rise Set
Actual Time 7:28 AM MDT 6:32 PM MDT
Civil Twilight 7:02 AM MDT 6:58 PM MDT
Nautical Twilight 6:33 AM MDT 7:27 PM MDT
Astronomical Twilight 6:03 AM MDT 7:57 PM MDT
Moon 12:58 AM MDT (10/22) 3:28 PM MDT (10/22)
Length of Visible Light 11h 55m
Length of Day
11h 03m
Last Quarter, 36% of the Moon is Illuminated
Oct 22
Last Quarter
Oct 27
New
Nov 4
First Quarter
Nov 12
Full
Nov 19
Last Quarter

Hourly Weather History & Observations

Time (MDT) Temp. Windchill Dew Point Humidity Pressure Visibility Wind Dir Wind Speed Gust Speed Precip Events Conditions
12:53 AM 28.9 °F - 6.1 °F 38% 30.20 in 10.0 mi Calm Calm - N/A   Clear
1:53 AM 30.9 °F - 6.1 °F 35% 30.20 in 10.0 mi Calm Calm - N/A   Clear
2:53 AM 30.0 °F - 6.1 °F 36% 30.20 in 10.0 mi Calm Calm - N/A   Clear
3:53 AM 28.9 °F 25.2 °F 6.1 °F 38% 30.22 in 10.0 mi ENE 3.5 mph - N/A   Clear
4:53 AM 28.0 °F 24.2 °F 7.0 °F 41% 30.21 in 10.0 mi NW 3.5 mph - N/A   Clear
5:53 AM 24.1 °F - 6.1 °F 46% 30.24 in 10.0 mi Calm Calm - N/A   Clear
6:53 AM 25.0 °F - 7.0 °F 46% 30.28 in 10.0 mi Calm Calm - N/A   Clear
7:53 AM 27.0 °F 23.0 °F 10.0 °F 49% 30.30 in 9.0 mi NNE 3.5 mph - N/A   Clear
8:53 AM 35.1 °F - 10.9 °F 37% 30.30 in 10.0 mi Calm Calm - N/A   Clear
9:53 AM 48.9 °F - 19.0 °F 31% 30.27 in 10.0 mi Variable 4.6 mph - N/A   Clear
10:53 AM 54.0 °F - 21.0 °F 28% 30.25 in 10.0 mi North 8.1 mph - N/A   Clear
11:53 AM 59.0 °F - 21.9 °F 24% 30.21 in 10.0 mi North - - N/A   Clear
12:53 PM 62.1 °F - 21.9 °F 21% 30.18 in 10.0 mi NNW 6.9 mph - N/A   Clear
1:53 PM 66.9 °F - 23.0 °F 19% 30.11 in 10.0 mi NNW 11.5 mph - N/A   Clear
2:53 PM 64.9 °F - 23.0 °F 20% 30.10 in 10.0 mi North 13.8 mph - N/A   Clear
3:53 PM 66.0 °F - 24.1 °F 20% 30.09 in 10.0 mi North 10.4 mph - N/A   Clear
4:53 PM 64.0 °F - 25.0 °F 23% 30.11 in 10.0 mi NNW 11.5 mph - N/A   Clear
5:53 PM 62.1 °F - 19.0 °F 19% 30.14 in 10.0 mi NNW 12.7 mph - N/A   Clear
6:53 PM 55.9 °F - 23.0 °F 28% 30.15 in 10.0 mi NNW 5.8 mph - N/A   Clear
7:53 PM 50.0 °F - 21.9 °F 33% 30.17 in 10.0 mi North 3.5 mph - N/A   Clear
8:53 PM 42.1 °F - 21.0 °F 43% 30.18 in 10.0 mi Calm Calm - N/A   Clear
9:53 PM 41.0 °F - 21.9 °F 47% 30.12 in 10.0 mi Calm Calm - N/A   Clear
10:53 PM 37.9 °F - 19.9 °F 48% 30.10 in 10.0 mi Calm Calm - N/A   Clear
11:53 PM 37.9 °F - 19.9 °F 48% 30.07 in 10.0 mi Calm Calm - N/A   Clear